Location: Binningen
(47.7924°N, 8.7261°E)
Time: 04:43:38
(UTC+00:00)

SPOT 1/Viking Rocket - Pass Details

Date: 17 May 2021
Orbit: 776 x 795 km, 98.4° (Epoch: 14 June)

Event Time Altitude Azimuth Distance (km) Brightness Sun altitude
Exits shadow 19:56:32 10° 147° (SSE) 2,385 5.4 -8.6°
Reaches altitude 10° 19:56:37 10° 147° (SSE) 2,348 5.4 -8.6°
Maximum altitude 20:01:41 56° 70° (ENE) 935 3.8 -9.2°
Drops below altitude 10° 20:06:45 10° 354° (N) 2,353 6.8 -9.8°
Sets 20:09:06 0° 350° (N) 3,283 7.8 -10.1°
